Location: Unspecified
(43.4354°N, 0.0000°E)
Time: 04:14:08
(UTC+00:00)

A-11 Canister half - Pass Details

Date: 25 June 2019
Orbit: 1514 x 1685 km, 47.2° (Epoch: 22 July)

Event Time Altitude Azimuth Distance (km) Brightness Sun altitude
Rises 16:33:31 0° 295° (WNW) 4,791 12.5 31.7°
Reaches altitude 10° 16:36:52 10° 289° (WNW) 3,779 12.5 31.1°
Maximum altitude 16:45:29 40° 224° (SW) 2,125 10.6 29.5°
Drops below altitude 10° 16:53:53 10° 158° (SSE) 3,674 10.8 28.0°
Sets 16:57:07 0° 151° (SSE) 4,645 11.2 27.4°
